Weather Roundup
Issued by NWS Chicago, IL

Home | Current Version | Previous Version | Graphics & Text | Print | Product List | Glossary On
Versions: 1 2 3 4 5 6 7 8 9 10 11 12 13 14 15 16 17 18 19 20 21 22 23 24 25 26 27 28 29 30 31 32 33 34 35 36 37 38 39 40 41 42 43 44 45 46 47 48 49 50
000
NZUS59 KLOT 050200
HRRLOT

CHICAGO AREA WEATHER ROUNDUP
NATIONAL WEATHER SERVICE CHICAGO/ROMEOVILLE IL
900 PM CDT TUE AUG 04 2015

NOTE: "FAIR" INDICATES FEW OR NO CLOUDS BELOW 12,000 FEET WITH NO
SIGNIFICANT WEATHER AND/OR OBSTRUCTIONS TO VISIBILITY.

* THESE STATIONS ARE NOT UNDER NWS QUALITY CONTROL. THEY ALSO MAY NOT
  REPORT WEATHER SUCH AS PRECIPITATION OR FOG.

ILZ005-006-012>014-019>023-050300-
NORTHEAST ILLINOIS

CITY           SKY/WX    TMP DP  RH WIND       PRES   REMARKS
OHARE          MOCLDY    74  53  48 N3        30.01R
MIDWAY         MOCLDY    76  59  55 E10       30.01R
AURORA         PTCLDY    65  59  81 NW3       30.02R
WAUKEGAN       NOT AVBL
DUPAGE AIRPORT MOCLDY    69  57  65 CALM      30.01R
WHEELING       MOCLDY    71  58  63 E3        30.02R
NORTHERLY IS     N/A     72  59  63 E6          N/A
$$

WIZ051-052-058>065-066-070>072-050300-
SOUTHEAST WISCONSIN

CITY           SKY/WX    TMP DP  RH WIND       PRES   REMARKS
MILWAUKEE      PTCLDY    69  56  62 S7        30.00R
KENOSHA*       PTCLDY    67  56  67 S5        30.01R
RACINE*        CLEAR     67  57  70 S5        30.02R
WAUKESHA       PTCLDY    66  52  59 CALM      30.01R
$$

INZ001>003-010>013-019-020-050300-
NORTHWEST INDIANA

CITY           SKY/WX    TMP DP  RH WIND       PRES   REMARKS
GARY*          MOCLDY    66  64  94 CALM      30.02R
MICHIGAN CITY* NOT AVBL
RENSSELAER*    NOT AVBL
$$

LMZ740>746-050300-
SOUTHERN LAKE MICHIGAN

STATION/POSITION TIME  SKY/WX   TEMP WIND        PRES    VSBY
                                AIR  DIR/SP/G
                 (UTC)          (F)  (DEG/KT/KT) (MB)    (MI)
HARRISON CRIB    0100            72   80/ 12/ 13   N/A
BURNHAM HARBOR   0100            72   60/  8/ 10   N/A
CALUMET HARBOR   0100            73   10/  3/  5   N/A
BURNS HARBOR     0100            75   40/  6/  8 1015.6R
MICHIGAN CITY    0100            73   20/ 11/ 13   N/A
$$

ABBREVIATIONS USED IN REMARKS
   TC - TEMPERATURE IN CELSIUS
  WCI - WIND CHILL INDEX
   HX - HEAT INDEX
  VSB - VISIBILITY
$$



USA.gov is the U.S. government's official web portal to all federal, state and local government web resources and services.